Location: Harwich
(41.7160°N, 69.9939°W)
Time: 12:20:35
(UTC+02:00)

CUBEBUG 2 - Visible Passes

Search period start: 16 September 2024 00:00
Search period end: 26 September 2024 00:00
Orbit: 567 x 660 km, 97.8° (Epoch: 15 September)

Date Brightness Start Highest point End Pass type
(mag) Time Alt. Az. Time Alt. Az. Time Alt. Az.
16 Sep ? 09:04:27 10° N 09:05:31 17° N 09:05:31 17° N visible
17 Sep ? 09:19:53 10° N 09:20:54 16° N 09:20:54 16° N visible
18 Sep ? 09:35:24 10° N 09:36:17 15° NNW 09:36:17 15° NNW visible
19 Sep ? 08:14:30 10° NNE 08:14:34 10° NNE 08:14:34 10° NNE visible
19 Sep ? 09:51:01 10° NNW 09:51:36 13° NNW 09:51:36 13° NNW visible
20 Sep ? 08:29:33 10° NNE 08:29:52 12° NNE 08:29:52 12° NNE visible
20 Sep ? 10:06:50 10° NNW 10:06:53 10° NNW 10:06:53 10° NNW visible
21 Sep ? 08:44:41 10° NNE 08:45:09 13° NNE 08:45:09 13° NNE visible
22 Sep ? 08:59:53 10° N 09:00:23 13° N 09:00:23 13° N visible
23 Sep ? 09:15:08 10° N 09:15:36 13° N 09:15:36 13° N visible
24 Sep ? 09:30:27 10° N 09:30:47 12° N 09:30:47 12° N visible
25 Sep ? 09:45:52 10° NNW 09:45:56 10° NNW 09:45:56 10° NNW visible
